User: anonymous
Location: Brno
(49.2000°N, 16.6330°E)
Time: 11:47:34
(UTC+02:00)
Language:

ISS - Orbit

View from above orbital plane
View from above orbital plane
View from above satellite
View from above satellite

Ground track
Ground track

The orbit data is extracted from the following two-line orbital elements,

1 25544U 98067A   14273.23581507  .00011977  00000-0  21194-3 0  1782
2 25544 051.6465 298.9014 0002019 125.3808 329.5521 15.50740753907629
Epoch (UTC): 30 September 2014 05:39:34
Eccentricity: 0.0002019
inclination: 51.6465°
perigee height: 413 km
apogee height: 416 km
right ascension of ascending node: 298.9014°
argument of perigee: 125.3808°
revolutions per day: 15.50740753
mean anomaly at epoch: 329.5521°
orbit number at epoch: 90762

The dashed part of the orbit path shows where the satellite is in the earth's shadow,  

DLR